Вернуться в каталог

STARLINK-32586

АктивенСвязьVLEO
NORAD 61975·PAYLOAD·🇺🇸 United States

Запущен Nov 14, 2024 с Cape Canaveral Space Force Station

Loading…

Ближайшие Пролёты (ближайшие 24 часа)

TLE

СвежийSource: CelesTrak SupGP

Эпоха: Sep 14, 2026, 22:24 UTC

1 61975C 24210S   26257.93381944 -.00032682  00000+0 -11835-2 0  2579
2 61975  43.0028 191.1113 0001343 262.5136  35.7585 15.27600805    18

Отслеживайте STARLINK-32586 в реальном времени с AllMySat

Download on the App Store